templaza.com alexa rank chart, templaza.com alexa rank daily changes

templaza.com alexa rank chart, templaza.com alexa rank daily changes

templaza.com
Actual rank:
101 057

RANK HISTORY

Date Rank Diff
2017/05/01 101 057 +984
2017/04/30 100 073 +203
2017/04/29 99 870 +480
2017/04/28 99 390 -371
2017/04/27 99 761 -1 741
2017/04/26 101 502 -1 906
2017/04/25 103 408 +73
2017/04/24 103 335 +584
2017/04/23 102 751 -204
2017/04/22 102 955 +1 286
2017/04/21 101 669 -1 219
2017/04/20 102 888 -414
2017/04/19 103 302 +1 513
2017/04/18 101 789 +716
2017/04/17 101 073 +376
2017/04/16 100 697 -137
2017/04/15 100 834 +81
2017/04/14 100 753 -1 536
2017/04/13 102 289 -723
2017/04/12 103 012 +1 292
2017/04/11 101 720 +2 157
2017/04/10 99 563 -819
2017/04/09 100 382 +1 109
2017/04/08 99 273 -1 413
2017/04/07 100 686 +732
2017/04/06 99 954 +1 434
2017/04/05 98 520 -92
2017/04/04 98 612 +1 051
2017/04/03 97 561 +2 569
2017/04/02 94 992 +2 571
2017/04/01 92 421 +932
2017/03/31 91 489 -578
2017/03/30 92 067 +294
2017/03/29 91 773 +89
2017/03/28 91 684 +1 472
2017/03/27 90 212 +1 114
2017/03/26 89 098 +1 161
2017/03/25 87 937 +1 410
2017/03/24 86 527 +1 146
2017/03/23 85 381 +2 126
2017/03/22 83 255 +1 224
2017/03/21 82 031 +901
2017/03/20 81 130 +986
2017/03/19 80 144 -1 033
2017/03/18 81 177 +323
2017/03/17 80 854 +654
2017/03/16 80 200 +173
2017/03/15 80 027 -11
2017/03/14 80 038 -157
2017/03/13 80 195 +1 767
2017/03/12 78 428 +169
2017/03/11 78 259 +978
2017/03/10 77 281 +2 381
2017/03/09 74 900 +89
2017/03/08 74 811 +1 288
2017/03/07 73 523 -58
2017/03/06 73 581

WIDGET FOR YOUR SITE

DOMAINS WITH THE NEAREST RANK

Domain Rank
winitnow.mobi 101 052
healthyfeetstore.com 101 053
comohacerunensayobien.com 101 054
hellofansub.blogspot.com 101 055
kath.net 101 056
templaza.com 101 057
bakersfieldcollege.edu 101 058
globus.de 101 059
bigtubegalore.com 101 060
kfchk.com 101 061
a-site.cn 101 062

DOMAINS WITH THE NEAREST RANK BY TLD .com

Domain Rank
coolwebmasters.com 101 049
puzmag.com 101 050
lanyon.com 101 051
healthyfeetstore.com 101 053
comohacerunensayobien.com 101 054
templaza.com 101 057
bigtubegalore.com 101 060
kfchk.com 101 061
dewapokermu.com 101 064
gant.com 101 065
thedailybanter.com 101 067